STARLINK-32855 (62813 NORAD) Tracking and Keplerian Element Data

This shows tracking and keplerian element data for the satellite.

Feedback or suggestion? Click here.




ElementValue
Catalog62813
NameSTARLINK-32855
Epoch Orbit5099
Epoch Day354.14381045
Epoch Year2025
RAAN318.7881
Inclination53.1617
Eccentricity0.0002083
Argument of Perigee128.1678
Mean Anonmoly231.9511
Mean Motion15.30196353
Decay Rate8.289E-05
L11 62813U 25018H 25354.14381045 .00008289 00000+0 29171-3 0 9990
L22 62813 53.1617 318.7881 0002083 128.1678 231.9511 15.30196353 50998



Live tracking and technical data element details for STARLINK-32855 (NORAD 62813). STARLINK-32855 can be tracked NOW for your location showing map with azimuth and elevation plus other details from your city location.







IsCatalogInMostPopularTable: catalog: 62813, numindb: 275
Update: records affected: 1



GetName: 62813 STARLINK-32855

Hit Count: updated at: Mon, 11 May 2026 11:45:10 GMT